BRITE-PL2 (HEWELIUSZ)

Last updated on Mon Sep 21 2026 00:03:33 GMT+0000 (Coordinated Universal Time)

1 40119U 14049B 26263.23082199 .00000750 00000+0 74241-4 0 9999 2 40119 97.9169 16.0199 0014541 149.4857 210.7212 14.94869508655642
UTC large
Height (km)
Speed (km/s)
/
Latitude / Longitude
Inclination (degrees)
Orbital Period (minutes)
Azimuth
Elevation
Range (km)
Doppler Factor

Next 0 passes for location: London (51.5072 / 0.1276)

No passes found over London.
BRITE-PL2 (HEWELIUSZ)